PHOG

Kahului Airport

Airport
ICAO code
PHOG
IATA Code
OGG
Summary
ICAO Region
NAM
ICAO Territory
Location

Kahului, Hawaii

Serving
Kahului
Elevation
54 ft
Coordinates
20° 53' 47" N , 156° 26' 3" W
KCC
Airport BS
Bird Strike
Metar
Observation
PHOG 281754Z 04009KT 10SM CLR 28/19 A3005 RMK AO2 SLP182 T02780194 10278 20200 53015
Station
Kahului, Kahului Airport
Date/Time
2022-09-28 17:54:00
Wind direction
40°
Wind speed
09 kts
Lowest cloud amount
n/a
Temperature
27.8°C
Dew point
19.4°C
Humidity
60%
Weather condition
n/a

Description

Kahului Airport is a regional airport in the state of Hawaii, located east of the Kahului CDP in Maui County on the island of Maui near Haleakala.

Climatology

Tropical Savanna climate (Köppen climate classification As) - monthly mean temperature above 18°C in every month of the year and a pronounced dry season.

Runways

Designator Length Width Surface Rops
5/23 1521 46 ASP Yes/Yes
2/20 2132 46 ASP Yes/Yes

Airport map

Aerial View

SKYbrary Partners:

Safety knowledge contributed by: